Regional Weather Roundup
Issued by NWS

Home | Current Version | Previous Version | Graphics & Text | Print | Product List | Glossary On
Versions: 1 2 3 4 5 6 7 8 9 10 11 12 13 14 15 16 17 18 19 20 21 22 23 24 25 26 27 28 29 30 31 32 33 34 35 36 37 38 39 40 41 42 43 44 45 46 47 48 49 50
448
ASUS44 KJAN 290903
RWRMS

MISSISSIPPI HOURLY WEATHER ROUNDUP
NATIONAL WEATHER SERVICE JACKSON MS
400 AM CDT MON SEP 29 2014

NOTE: "FAIR: INDICATES FEW OR NO CLOUDS BELOW 12,000 FEET WITH NO
SIGNIFICANT WEATHER AND/OR OBSTRUCTIONS TO VISIBILITY.

MSZ001>002-007>008-010>013-018>021-025>028-034>036-291000-
NORTHWEST MISSISSIPPI

CITY           SKY/WX    TMP DP  RH WIND       PRES   REMARKS
CLARKSDALE     FAIR      63  63 100 CALM      30.00S
CLEVELAND      PTSUNNY   68  66  93 NE5       29.98S
GREENWOOD      PTCLDY    71  65  81 NE6       29.98S
GREENVILLE     PTCLDY    69  64  84 NE3       29.97F
GRENADA        FAIR      66  63  88 CALM      29.99S
OLIVE BRANCH   CLEAR     61  61 100 CALM      30.02S
OXFORD         FAIR      63  61  94 CALM      30.02S
TUNICA         SUNNY     59  59 100 CALM      30.01S
$$

MSZ003>006-009-014>017-022>024-029>033-037>039-291000-
NORTHEAST MISSISSIPPI

CITY           SKY/WX    TMP DP  RH WIND       PRES   REMARKS
COLUMBUS AFB   CLOUDY    71  67  87 NE3       29.98F
CORINTH        FOG       61  59  94 CALM      30.01S VSB 1/2
GOLDN TRIANGLE CLOUDY    72  64  78 NE3       29.98S
STARKVILLE     CLOUDY    72  68  88 CALM      29.99S
TUPELO         CLOUDY    68  64  87 NE3       30.00S
$$

MSZ040-058-291000-
CENTRAL MISSISSIPPI

CITY           SKY/WX    TMP DP  RH WIND       PRES   REMARKS
JACKSON INTL   CLOUDY    73  69  87 NE5       29.95F
JACKSON HAWKNS CLOUDY    74  69  85 NE5       29.96S
MERIDIAN KEY   CLOUDY    72  68  87 NE6       29.96F
MERIDIAN NAS   CLOUDY    71  68  90 N3        29.97F
RAYMOND        FAIR      72  66  83 CALM      29.95F
VICKSBURG      CLOUDY    73  69  87 NE5       29.95F
$$

MSZ059>079-291000-
SOUTH MISSISSIPPI

CITY           SKY/WX    TMP DP  RH WIND       PRES   REMARKS
BROOKHAVEN     CLOUDY    72  72 100 N3        29.96S FOG
COLUMBIA       CLOUDY    73  72  94 E5        29.92S
HATTIESBURG    CLOUDY    74  71  91 E6        29.93F
MCCOMB         CLOUDY    73  71  93 CALM      29.93F
NATCHEZ        CLOUDY    72  70  94 NE6       29.95S
PINE BELT      CLOUDY   N/A N/A N/A NE5       29.94F
$$

MSZ080>082-291000-
COASTAL MISSISSIPPI

CITY           SKY/WX    TMP DP  RH WIND       PRES   REMARKS
BILOXI         MOCLDY    73  73 100 NE6       29.90S
PASCAGOULA     MOCLDY    72  71  97 N3        29.90S
GULFPORT       CLOUDY    74  72  93 NE5       29.90S
$$



USA.gov is the U.S. government's official web portal to all federal, state and local government web resources and services.